Date,TemperatureHighF,TemperatureAvgF,TemperatureLowF,DewpointHighF,DewpointAvgF,DewpointLowF,HumidityHigh,HumidityAvg,HumidityLow,PressureMaxIn,PressureMinIn,WindSpeedMaxMPH,WindSpeedAvgMPH,GustSpeedMaxMPH,PrecipitationSumIn
2013-1-1,53.1,39.5,30.7,41.0,35.3,29.0,96,86,60,30.49,30.37,4,1,6,0.00
2013-1-2,35.2,32.8,30.4,34.0,31.8,29.0,96,96,95,30.38,30.25,3,1,5,0.01
2013-1-3,44.7,33.7,30.3,40.0,32.4,29.0,97,95,83,30.37,30.22,4,1,5,0.00
2013-1-4,54.5,36.7,32.5,46.0,34.6,31.0,97,92,70,30.41,30.24,2,0,4,0.00
2013-1-5,45.5,37.2,33.0,43.0,35.9,32.0,97,95,89,30.29,30.22,3,1,6,0.00
2013-1-6,53.5,43.3,38.2,45.0,40.3,37.0,97,90,68,30.34,30.24,4,1,8,0.00
2013-1-7,56.9,48.4,44.0,52.0,45.6,41.0,96,90,81,30.33,30.25,4,2,7,0.03
2013-1-8,61.1,50.1,45.0,50.0,46.5,43.0,96,88,67,30.34,30.06,8,2,11,0.00
2013-1-9,47.9,41.3,34.9,44.0,38.6,34.0,95,90,75,30.11,29.92,9,3,14,0.39
2013-1-10,41.4,37.1,34.4,39.0,35.5,33.0,95,94,88,30.27,30.12,5,2,12,0.32
2013-1-11,42.0,34.6,29.9,39.0,33.2,28.0,96,94,84,30.39,30.25,3,1,5,0.07
2013-1-12,40.7,32.2,27.1,34.0,30.1,25.0,96,92,75,30.47,30.37,3,1,6,0.00
2013-1-13,35.4,29.8,25.8,30.0,27.7,24.0,95,92,78,30.55,30.46,3,1,5,0.01
2013-1-14,41.5,30.5,26.3,33.0,28.1,25.0,95,90,68,30.65,30.56,3,1,5,0.00
2013-1-15,38.7,29.2,25.3,34.0,27.6,24.0,95,93,83,30.73,30.64,4,1,5,0.00
2013-1-16,34.3,31.9,29.3,33.0,30.9,28.0,96,96,94,30.73,30.57,4,2,6,0.00
2013-1-17,36.1,33.2,31.7,35.0,32.1,31.0,96,96,94,30.57,30.39,4,2,5,0.00
2013-1-18,44.4,33.1,31.8,41.0,32.0,30.0,97,96,86,30.41,30.33,3,1,4,0.01
2013-1-19,46.9,32.6,29.8,42.0,31.3,29.0,97,95,79,30.43,30.33,2,1,4,0.01
2013-1-20,50.2,32.6,28.8,43.0,31.0,28.0,97,94,72,30.43,30.28,3,1,4,0.01
2013-1-21,53.5,32.8,28.1,43.0,30.4,27.0,96,91,65,30.34,30.20,3,1,5,0.01
2013-1-22,45.2,32.8,28.1,40.0,31.3,27.0,96,94,76,30.23,30.00,2,1,3,0.00
2013-1-23,43.4,39.7,36.7,42.0,38.6,35.0,96,95,93,30.26,29.95,5,1,9,0.36
2013-1-24,53.6,46.2,41.8,49.0,44.4,41.0,97,93,85,30.27,30.19,3,1,6,0.08
2013-1-25,55.4,47.6,38.8,53.0,46.4,38.0,97,96,91,30.23,30.06,2,0,4,0.45
2013-1-26,50.2,41.7,37.6,45.0,39.9,36.0,97,93,78,30.21,30.10,11,2,13,0.22
2013-1-27,46.7,41.2,37.3,43.0,38.8,36.0,97,91,82,30.31,30.21,6,2,9,0.02
2013-1-28,45.2,41.6,39.5,43.0,40.2,38.0,96,95,92,30.41,30.24,5,1,7,0.15
2013-1-29,51.0,44.9,41.9,46.0,42.9,40.0,96,92,82,30.62,30.42,5,2,6,0.03
2013-1-30,53.2,43.0,35.9,47.0,40.6,35.0,97,91,78,30.66,30.54,5,1,6,0.00
2013-1-31,49.8,46.3,42.8,45.0,43.3,41.0,95,89,81,30.52,30.43,4,2,7,0.00
2013-2-1,55.7,46.8,36.8,46.0,42.4,35.0,96,85,70,30.43,30.29,4,2,7,0.00
2013-2-2,53.6,41.7,34.2,46.0,39.5,32.0,96,92,75,30.41,30.33,4,1,5,0.00
2013-2-3,48.1,43.8,38.7,44.0,41.8,38.0,97,93,84,30.41,30.33,6,2,7,0.00
2013-2-4,56.7,48.5,43.5,47.0,43.7,42.0,95,84,66,30.31,30.05,3,1,5,0.00
2013-2-5,53.2,43.0,38.3,45.0,40.3,37.0,97,91,73,30.22,30.06,7,2,17,0.06
2013-2-6,55.4,43.5,34.6,46.0,38.4,33.0,96,84,62,30.24,29.99,11,3,14,0.05
2013-2-7,45.7,39.4,33.2,42.0,37.3,31.0,96,92,85,30.19,30.07,6,1,8,0.10
2013-2-8,47.6,39.3,33.5,40.0,36.2,30.0,96,89,65,30.36,30.19,12,2,16,0.00
2013-2-9,49.9,37.4,31.4,41.0,35.0,30.0,96,91,71,30.39,30.34,7,1,8,0.00
2013-2-10,47.9,44.3,42.2,41.0,40.3,38.0,95,86,77,30.40,30.36,10,3,10,0.00
2013-2-11,52.4,44.6,42.0,42.0,38.9,37.0,89,80,65,30.51,30.38,6,3,10,0.00
2013-2-12,56.8,47.9,43.1,49.0,44.6,41.0,96,88,76,30.60,30.53,4,1,6,0.07
2013-2-13,56.7,48.3,44.3,48.0,45.0,42.0,96,89,72,30.59,30.53,3,1,4,0.01
2013-2-14,60.6,49.5,38.7,50.0,44.4,36.0,96,84,66,30.62,30.49,4,1,7,0.00
2013-2-15,60.3,46.8,37.3,50.0,42.4,35.0,96,86,64,30.50,30.30,3,0,4,0.00
2013-2-16,49.8,40.7,33.5,46.0,39.1,32.0,96,94,82,30.41,30.34,5,1,6,0.00
2013-2-17,52.7,40.2,31.8,42.0,35.3,30.0,96,84,56,30.38,30.17,7,1,11,0.01
2013-2-18,50.5,35.0,28.8,40.0,32.8,27.0,95,91,62,30.17,29.86,5,1,8,0.01
2013-2-19,45.9,38.3,34.7,39.0,36.1,33.0,97,92,75,30.08,29.74,4,1,7,0.07
2013-2-20,51.4,42.0,34.1,41.0,37.9,32.0,95,86,61,30.23,30.09,4,1,9,0.01
2013-2-21,48.6,41.6,37.1,43.0,38.9,35.0,95,90,74,30.36,30.24,4,2,9,0.02
2013-2-22,52.3,45.4,40.7,44.0,41.8,38.0,95,87,72,30.34,30.11,10,4,15,0.13
2013-2-23,45.8,38.2,32.2,41.0,35.8,30.0,95,90,82,30.55,30.26,7,2,8,0.09
2013-2-24,55.5,39.7,34.2,44.0,36.4,33.0,95,89,57,30.56,30.28,5,2,8,0.00
2013-2-25,53.0,43.6,39.4,42.0,39.1,36.0,93,85,58,30.51,30.26,11,3,15,0.13
2013-2-26,54.1,39.0,32.3,43.0,35.4,30.0,95,88,54,30.50,30.33,8,1,10,0.00
2013-2-27,56.3,45.4,36.4,47.0,40.4,35.0,95,84,58,30.41,30.34,4,1,6,0.01
2013-2-28,60.7,52.0,47.5,54.0,49.6,46.0,95,91,76,30.55,30.34,7,1,9,0.04
2013-3-1,65.9,58.1,46.1,54.0,50.9,44.0,96,79,57,30.56,30.38,4,1,5,0.01
2013-3-2,58.2,52.7,48.3,53.0,49.3,47.0,96,88,76,30.37,30.28,8,2,10,0.01
2013-3-3,55.1,44.7,31.4,47.0,36.6,29.0,92,75,50,30.35,30.24,10,5,15,0.02
2013-3-4,63.8,40.6,27.1,47.0,34.4,25.0,96,81,51,30.25,29.99,6,1,7,0.00
2013-3-5,47.1,40.0,32.3,44.0,38.3,30.0,95,93,89,29.99,29.68,2,1,4,0.46
2013-3-6,52.1,44.6,38.9,44.0,40.6,36.0,95,86,62,30.07,29.64,14,4,22,0.46
2013-3-7,61.0,39.8,32.8,43.0,34.6,31.0,96,84,38,30.12,30.02,11,1,14,0.01
2013-3-8,53.3,37.5,31.5,43.0,34.9,30.0,96,91,68,30.30,30.09,6,1,10,0.01
2013-3-9,63.5,45.6,32.9,44.0,37.0,31.0,96,77,32,30.58,30.30,5,1,8,0.00
2013-3-10,67.6,45.7,31.0,48.0,37.1,29.0,96,76,36,30.60,30.46,7,2,10,0.00
2013-3-11,68.3,55.3,38.5,52.0,46.8,37.0,95,75,53,30.49,30.29,6,2,10,0.00
2013-3-12,65.9,55.4,42.0,54.0,49.1,40.0,96,81,62,30.32,30.21,4,2,8,0.00
2013-3-13,73.1,63.1,49.5,55.0,51.7,47.0,93,68,47,30.29,30.13,5,2,7,0.00
2013-3-14,65.1,57.6,44.0,54.0,48.9,42.0,96,75,55,30.29,30.14,8,3,11,0.00
2013-3-15,70.3,61.2,50.0,53.0,49.8,46.0,93,68,48,30.30,30.21,9,3,14,0.00
2013-3-16,53.2,48.7,42.8,48.0,44.9,41.0,94,87,74,30.30,30.18,7,2,13,0.08
2013-3-17,53.9,45.1,37.8,41.0,37.7,33.0,94,77,47,30.42,30.30,7,2,10,0.00
2013-3-18,60.7,41.7,29.5,42.0,34.6,27.0,94,78,49,30.38,30.16,8,2,10,0.01
2013-3-19,59.8,49.1,43.0,52.0,44.0,40.0,92,83,62,30.17,29.82,6,1,10,0.13
2013-3-20,56.0,48.5,38.3,50.0,43.4,36.0,94,83,70,30.33,29.75,13,4,20,0.18
2013-3-21,49.5,40.3,35.2,42.0,36.9,33.0,95,88,70,30.45,30.33,11,2,18,0.04
2013-3-22,50.1,39.7,35.1,39.0,35.5,32.0,94,86,55,30.46,30.42,7,2,10,0.01
2013-3-23,55.6,38.9,32.7,38.0,34.3,31.0,94,85,44,30.45,30.31,6,2,10,0.00
2013-3-24,60.6,40.5,33.6,45.0,35.6,31.0,94,84,53,30.33,30.12,6,2,10,0.00
2013-3-25,59.8,45.0,35.0,48.0,40.2,33.0,95,84,62,30.12,29.99,5,1,8,0.00
2013-3-26,60.9,52.5,43.9,47.0,44.5,40.0,93,76,56,30.08,30.02,5,2,7,0.01
2013-3-27,65.5,55.3,44.5,54.0,49.6,43.0,94,82,65,30.05,29.96,7,2,11,0.12
2013-3-28,64.0,56.6,49.9,56.0,51.5,48.0,94,83,68,30.20,30.05,10,2,12,0.08
2013-3-29,75.1,63.6,49.7,57.0,51.7,46.0,95,68,37,30.25,30.13,5,2,8,0.02
2013-3-30,78.4,64.5,44.4,60.0,53.9,43.0,96,71,48,30.19,29.97,3,1,6,0.01
2013-3-31,67.4,58.3,51.9,55.0,52.9,49.0,92,83,61,30.09,30.05,6,1,10,0.02
2013-4-1,62.3,57.7,53.1,55.0,53.5,51.0,95,86,71,30.25,30.09,4,1,6,0.27
2013-4-2,71.7,61.9,48.9,55.0,51.8,46.0,95,71,47,30.27,30.16,5,1,8,0.00
2013-4-3,69.4,61.1,44.2,57.0,52.8,42.0,96,76,59,30.21,29.94,4,1,7,0.02
2013-4-4,64.5,57.0,52.7,58.0,53.8,50.0,95,89,68,30.02,29.80,12,3,20,0.20
2013-4-5,61.0,55.2,49.5,53.0,50.0,48.0,95,83,69,30.07,29.98,10,3,15,0.02
2013-4-6,59.9,53.6,51.3,51.0,49.6,49.0,92,86,69,30.12,29.95,7,3,22,0.30
2013-4-7,54.9,48.3,42.1,49.0,43.3,40.0,92,83,75,30.08,29.87,12,6,25,0.20
2013-4-8,54.2,47.7,41.3,46.0,42.9,40.0,95,84,71,30.35,30.10,6,2,15,0.03
2013-4-9,68.9,57.4,41.3,47.0,42.4,35.0,95,62,31,30.42,30.32,5,1,7,0.00
2013-4-10,62.9,51.8,39.3,53.0,46.2,38.0,95,82,59,30.38,30.31,8,3,12,0.00
2013-4-11,61.7,52.6,39.7,45.0,41.9,36.0,91,68,49,30.41,30.21,13,4,15,0.00
2013-4-12,67.2,49.4,35.0,48.0,39.8,33.0,95,73,42,30.21,29.98,9,2,13,0.00
2013-4-13,54.0,45.9,36.2,45.0,38.7,32.0,90,77,59,30.22,30.07,9,3,16,0.02
2013-4-14,54.4,39.9,33.3,43.0,36.0,31.0,94,87,54,30.23,30.03,8,2,11,0.04
2013-4-15,49.7,43.4,38.2,42.0,39.5,36.0,94,86,70,30.28,30.05,10,3,20,0.11
2013-4-16,57.9,43.1,37.9,46.0,39.5,36.0,96,88,61,30.48,30.29,14,3,18,0.04
2013-4-17,62.2,51.5,39.5,44.0,41.0,37.0,93,70,43,30.57,30.48,11,3,12,0.00
2013-4-18,68.1,60.1,44.2,49.0,45.5,41.0,93,60,46,30.55,30.40,5,1,11,0.00
2013-4-19,60.5,53.9,47.5,54.0,49.0,44.0,92,84,72,30.43,30.34,7,1,10,0.01
2013-4-20,67.4,60.4,43.5,49.0,45.6,42.0,95,61,44,30.41,30.28,10,3,13,0.00
2013-4-21,68.0,59.6,47.3,52.0,47.9,44.0,88,67,49,30.37,30.26,8,2,16,0.00
2013-4-22,69.7,62.1,49.4,50.0,46.8,37.0,84,59,43,30.36,30.25,17,8,20,0.00
2013-4-23,72.7,58.6,37.0,41.0,34.0,25.0,91,47,19,30.32,30.15,14,4,23,0.00
2013-4-24,80.0,63.9,38.3,46.0,40.3,35.0,89,47,22,30.20,29.99,11,3,16,0.00
2013-4-25,80.3,64.7,37.0,49.0,43.7,35.0,94,52,26,30.18,30.05,11,2,14,0.00
2013-4-26,84.8,68.2,40.4,52.0,46.6,38.0,94,52,23,30.29,30.18,8,2,12,0.00
2013-4-27,83.1,67.5,41.7,52.0,43.9,36.0,95,48,23,30.33,30.22,11,3,16,0.00
2013-4-28,72.0,60.5,39.9,52.0,46.0,36.0,90,61,43,30.36,30.21,7,2,13,0.00
2013-4-29,65.7,60.7,49.1,52.0,45.7,38.0,87,60,41,30.25,30.18,12,6,15,0.00
2013-4-30,62.1,50.0,38.3,37.0,34.0,32.0,84,58,33,30.43,30.27,17,6,20,0.00
2013-5-1,74.1,56.9,37.5,43.0,38.2,32.0,86,54,29,30.52,30.39,12,4,18,0.00
2013-5-2,84.0,67.6,36.3,50.0,40.3,33.0,93,42,19,30.44,30.23,10,3,13,0.00
2013-5-3,83.1,68.4,39.5,46.0,42.4,35.0,92,43,22,30.32,30.11,15,5,18,0.00
2013-5-4,85.4,74.1,40.6,51.0,42.2,35.0,89,36,17,30.12,29.78,24,7,28,0.00
2013-5-5,88.3,72.9,47.3,56.0,46.2,38.0,87,43,22,29.86,29.62,23,4,26,0.07
2013-5-6,80.3,69.2,47.7,55.0,50.7,46.0,93,54,35,30.01,29.84,10,3,16,0.00
2013-5-7,79.9,68.3,47.6,54.0,50.4,44.0,89,56,36,30.11,29.95,12,5,17,0.00
2013-5-8,79.3,67.5,50.3,54.0,51.2,46.0,87,58,38,30.18,30.07,10,4,14,0.00
2013-5-9,84.3,70.7,47.3,58.0,50.5,41.0,83,52,26,30.23,30.09,9,2,13,0.00
2013-5-10,87.7,72.3,50.3,61.0,54.7,45.0,88,56,38,30.25,30.13,13,3,16,0.00
2013-5-11,88.9,74.3,53.7,60.0,55.1,48.0,89,54,32,30.25,30.04,9,2,12,0.00
2013-5-12,84.3,70.8,52.7,62.0,55.6,48.0,92,61,39,30.18,30.09,12,4,17,0.00
2013-5-13,74.1,64.8,56.0,58.0,51.7,46.0,89,64,41,30.26,30.13,15,4,24,0.00
2013-5-14,73.7,64.6,50.8,50.0,45.3,40.0,84,53,30,30.26,30.11,11,4,13,0.00
2013-5-15,66.8,59.6,46.9,49.0,44.9,38.0,76,59,48,30.18,30.08,8,2,10,0.00
2013-5-16,65.4,59.0,53.4,54.0,51.0,46.0,92,76,54,30.08,30.01,13,3,16,0.15
2013-5-17,64.4,58.4,50.7,51.0,48.3,45.0,92,71,53,30.18,30.07,10,3,14,0.01
2013-5-18,62.7,56.3,50.1,54.0,49.6,47.0,91,79,67,30.38,30.18,9,2,12,0.14
2013-5-19,69.2,62.7,47.8,54.0,49.7,43.0,91,64,45,30.45,30.33,15,5,16,0.00
2013-5-20,79.6,65.2,38.6,54.0,48.9,36.0,94,59,37,30.36,30.02,9,3,17,0.00
2013-5-21,55.5,49.0,42.7,50.0,43.3,39.0,89,80,67,30.18,29.93,12,4,15,0.47
2013-5-22,54.4,46.5,42.7,44.0,41.4,39.0,89,82,68,30.17,30.12,10,4,13,0.05
2013-5-23,59.4,52.9,42.9,48.0,43.8,41.0,94,73,55,30.14,30.10,7,3,12,0.00
2013-5-24,64.5,58.6,49.3,47.0,43.8,41.0,82,59,43,30.18,30.12,8,4,12,0.01
2013-5-25,72.6,62.3,46.7,53.0,47.8,44.0,92,63,42,30.16,29.99,9,2,12,0.13
2013-5-26,71.1,63.4,52.4,54.0,51.0,49.0,94,67,47,30.09,30.04,12,4,16,0.05
2013-5-27,67.9,60.5,53.1,58.0,54.1,50.0,92,80,70,30.05,29.87,13,3,13,0.26
2013-5-28,71.0,64.3,54.4,55.0,52.4,49.0,90,67,52,30.01,29.82,12,4,14,0.01
2013-5-29,67.6,60.9,47.0,55.0,50.8,43.0,90,71,54,30.16,29.81,11,5,20,0.05
2013-5-30,63.9,56.6,45.9,48.0,45.7,42.0,91,69,51,30.32,30.17,11,3,12,0.00
2013-5-31,76.3,64.2,41.6,51.0,46.7,39.0,95,57,37,30.37,30.23,10,4,13,0.00
2013-6-1,82.8,71.6,43.1,56.0,50.4,40.0,93,50,33,30.29,30.06,13,4,17,0.00
2013-6-2,75.3,66.4,54.4,55.3,52.2,48.2,87,62,43,30.11,30.02,17,6,17,0.00
2013-6-3,82.2,65.1,47.5,55.6,47.8,39.0,94,59,26,30.13,30.00,20,4,20,0.00
2013-6-4,87.9,68.3,47.4,55.9,48.1,41.7,90,54,24,30.09,29.97,16,3,16,0.00
2013-6-5,90.5,70.9,47.8,59.5,51.8,39.9,89,54,29,30.12,29.96,14,2,14,0.00
2013-6-6,88.7,72.1,53.1,62.4,55.4,45.4,88,58,37,30.08,29.97,16,3,16,0.00
2013-6-7,88.7,71.8,50.9,57.1,51.7,42.7,85,53,27,30.16,30.05,17,4,17,0.00
2013-6-8,88.1,72.3,56.3,59.6,48.8,30.1,86,51,13,30.15,30.03,18,5,18,0.00
2013-6-9,82.2,69.4,54.9,54.4,48.9,39.0,77,50,30,30.08,29.93,19,5,19,0.00
2013-6-10,78.3,63.1,50.6,50.7,47.0,42.3,79,58,31,30.06,29.90,16,4,17,0.00
2013-6-11,68.2,59.9,52.2,46.5,44.1,39.6,71,57,37,30.21,30.06,13,4,13,0.00
2013-6-12,66.2,57.7,44.5,47.6,44.4,36.1,88,63,46,30.27,30.20,14,3,14,0.00
2013-6-13,69.1,58.2,49.0,50.4,45.9,42.5,83,65,47,30.37,30.27,15,2,15,0.00
2013-6-14,79.5,60.2,39.3,50.8,44.2,33.6,94,61,28,30.37,30.01,15,3,16,0.00
2013-6-15,84.0,64.7,43.0,55.0,46.6,33.9,87,55,30,30.09,29.95,16,3,16,0.00
2013-6-16,81.2,63.7,44.2,55.0,48.1,36.4,88,59,37,30.19,30.08,18,3,18,0.00
2013-6-17,79.6,63.4,45.1,54.3,48.5,37.2,89,61,37,30.19,30.01,16,3,16,0.00
2013-6-18,72.2,62.2,50.4,51.5,47.9,42.2,82,61,38,30.09,30.00,23,3,23,0.00
2013-6-19,68.2,60.0,54.1,52.0,48.6,44.6,85,67,48,30.20,30.05,19,3,19,0.02
2013-6-20,72.5,61.1,53.2,50.7,48.2,44.2,81,64,44,30.19,30.12,13,2,13,0.00
2013-6-21,77.9,63.3,48.1,53.3,47.9,40.8,91,61,31,30.23,30.11,15,2,15,0.00
2013-6-22,85.4,66.5,43.9,53.7,45.7,36.9,90,52,22,30.15,29.92,12,2,12,0.00
2013-6-23,78.5,67.7,60.0,59.4,52.9,44.6,78,60,39,29.92,29.68,21,3,21,0.00
2013-6-24,66.7,61.1,56.4,58.4,54.7,50.0,91,80,64,29.79,29.75,6,1,6,0.17
2013-6-25,71.3,64.1,58.8,61.7,57.6,54.5,94,81,58,29.92,29.75,21,2,21,0.06
2013-6-26,75.0,67.0,58.9,61.0,57.8,55.7,93,74,52,30.07,29.91,8,1,8,0.01
2013-6-27,89.6,74.5,61.4,63.5,60.0,57.1,89,64,35,30.19,30.07,15,3,15,0.00
2013-6-28,94.8,76.2,54.0,65.1,57.6,47.7,93,57,28,30.19,30.05,15,3,15,0.00
2013-6-29,95.3,77.5,57.8,61.8,56.3,49.2,82,52,28,30.17,29.96,12,2,12,0.00
2013-6-30,96.8,77.3,56.7,67.0,58.6,46.3,86,55,33,30.01,29.87,16,3,16,0.00
2013-7-1,96.7,78.9,59.3,67.2,60.8,50.7,88,56,35,30.02,29.95,13,2,13,0.00
2013-7-2,99.0,80.5,61.7,69.7,62.8,53.3,87,57,32,30.10,29.96,16,3,16,0.00
2013-7-3,92.8,77.3,61.0,61.2,55.4,45.0,84,51,25,30.13,30.00,15,3,15,0.00
2013-7-4,85.4,70.9,51.6,54.5,48.3,39.1,76,47,24,30.16,29.98,21,4,21,0.00
2013-7-5,82.0,69.1,57.2,54.3,49.6,42.5,78,54,27,30.09,29.92,19,6,19,0.00
2013-7-6,85.4,68.7,49.2,56.6,52.5,42.2,92,60,33,29.99,29.85,16,4,16,0.00
2013-7-7,85.4,70.1,50.3,60.1,55.5,43.5,91,62,41,30.00,29.87,15,3,17,0.00
2013-7-8,90.3,72.2,49.7,59.0,50.9,37.7,91,52,24,30.09,29.97,17,3,17,0.00
2013-7-9,95.3,75.2,51.9,61.4,52.6,37.6,80,49,24,30.11,29.97,13,2,13,0.00
2013-7-10,92.4,73.5,54.6,60.5,54.3,44.0,84,53,31,30.07,29.90,16,3,16,0.00
2013-7-11,83.8,69.0,51.9,52.5,49.2,44.9,84,52,28,30.08,29.94,16,4,16,0.00
2013-7-12,80.3,48.4,53.5,53.5,5.0,-99.9,85,36,35,30.11,30.01,11,-291,11,0.00
2013-7-13,86.2,66.7,42.9,51.9,43.6,32.9,88,47,25,30.16,30.01,19,3,19,0.00
2013-7-14,93.5,72.0,47.3,54.5,47.1,33.6,76,44,23,30.11,29.94,10,2,14,0.00
2013-7-15,93.3,74.1,50.4,53.5,47.6,40.3,84,43,20,30.01,29.78,16,3,16,0.00
2013-7-16,89.3,71.1,60.7,58.7,53.2,41.0,74,55,34,30.09,29.81,17,3,17,0.00
2013-7-17,87.0,41.9,60.4,57.9,-15.6,-99.9,74,26,35,30.19,30.09,11,-456,12,0.00
2013-7-18,91.0,72.3,49.8,59.4,53.9,42.8,88,56,28,30.22,30.05,13,3,14,0.00
2013-7-19,92.5,70.1,49.4,59.8,48.3,-99.9,89,53,27,30.16,29.99,15,-31,15,0.00
2013-7-20,91.3,68.7,52.3,60.2,48.4,-99.9,91,57,25,30.10,29.91,16,-35,16,0.00
2013-7-21,93.9,74.7,52.1,59.1,52.0,45.1,89,51,22,29.99,29.85,14,3,14,0.00
2013-7-22,96.3,72.0,52.8,61.0,43.0,-99.9,86,45,17,30.02,29.90,15,-52,15,0.00
2013-7-23,96.6,41.6,61.7,60.8,-27.5,-99.9,58,16,20,30.05,29.91,11,-529,11,0.00
2013-7-24,98.5,30.4,70.2,58.9,-47.5,-99.9,58,11,19,30.04,29.92,8,-650,9,0.00
2013-7-25,98.3,70.1,57.1,58.9,32.0,-99.9,81,36,17,30.08,29.95,16,-112,16,0.00
2013-7-26,96.0,50.2,68.3,56.9,-13.3,-99.9,43,17,17,30.13,30.02,16,-420,17,0.00
2013-7-27,90.4,74.6,53.6,52.3,46.1,37.4,71,39,17,30.18,29.98,16,4,17,0.00
2013-7-28,87.0,69.0,46.5,54.1,48.2,37.0,84,50,27,30.09,29.93,14,3,15,0.00
2013-7-29,84.0,62.3,50.5,57.1,40.9,-99.9,86,57,31,30.10,29.96,14,-67,14,0.00
2013-7-30,85.3,56.5,48.0,57.9,29.5,-99.9,91,54,32,30.19,30.08,12,-147,12,0.00
2013-7-31,75.9,55.3,58.2,58.5,32.7,-99.9,82,62,54,30.17,30.10,17,-133,17,0.00
2013-8-1,72.1,44.6,58.9,56.8,5.3,-99.9,80,46,56,30.18,30.13,10,-317,12,0.00
2013-8-2,83.5,69.4,58.2,56.4,54.0,51.9,83,61,35,30.19,30.05,13,2,13,0.00
2013-8-3,88.5,69.0,48.1,58.9,52.0,42.6,92,59,31,30.14,29.97,11,1,14,0.00
2013-8-4,93.9,72.6,50.4,61.0,53.7,41.9,87,56,23,30.06,29.90,19,2,21,0.00
2013-8-5,94.7,74.9,52.1,60.7,54.7,43.6,90,53,26,30.04,29.89,18,2,18,0.00
2013-8-6,96.3,75.4,55.2,60.8,54.2,46.3,88,52,21,30.02,29.88,17,2,17,0.00
2013-8-7,72.8,65.7,55.9,56.1,51.9,45.6,76,61,51,30.10,29.98,9,1,10,0.00
2013-8-8,85.0,58.9,55.7,59.3,29.6,-99.9,81,50,39,30.12,29.93,13,-164,13,0.00
2013-8-9,90.2,58.9,62.2,64.8,28.0,-99.9,82,51,36,29.99,29.87,14,-188,14,0.00
2013-8-10,67.6,14.0,59.0,62.7,-64.1,-99.9,97,21,73,30.11,29.99,6,-775,6,0.07
2013-8-11,84.7,10.6,77.5,61.3,-79.1,-99.9,50,6,41,30.12,29.99,14,-861,14,0.00
2013-8-12,63.4,1.1,59.1,54.6,-97.8,-99.9,83,1,73,30.11,30.01,0,-982,0,0.00
2013-8-13,91.1,7.3,62.6,57.0,-89.1,-99.9,63,3,30,30.15,29.95,9,-897,9,0.00
2013-8-14,93.2,74.7,52.7,58.0,54.8,46.0,85,53,24,30.07,29.92,15,2,15,0.00
2013-8-15,88.3,71.5,54.1,64.6,57.5,45.1,91,63,42,30.01,29.94,15,2,15,0.00
2013-8-16,88.4,75.2,63.5,65.7,59.4,47.2,83,61,32,30.09,30.00,13,2,13,0.00
2013-8-17,87.5,69.9,51.0,62.4,53.5,43.0,88,58,39,30.14,30.03,15,2,15,0.00
2013-8-18,89.7,71.7,52.7,61.5,56.0,45.8,92,61,33,30.17,30.02,15,2,15,0.00
2013-8-19,92.4,74.5,53.7,62.2,56.2,47.7,89,57,30,30.14,29.99,15,2,15,0.00
2013-8-20,88.9,74.4,60.7,57.1,49.2,38.0,77,46,19,30.12,29.95,17,4,17,0.00
2013-8-21,89.9,72.9,57.2,57.0,51.5,41.4,75,49,31,30.01,29.85,11,1,11,0.00
2013-8-22,85.9,71.6,64.0,63.6,58.2,51.4,90,64,41,29.97,29.89,15,1,15,0.02
2013-8-23,82.0,67.1,55.1,61.5,56.7,45.9,94,71,42,29.99,29.92,13,1,13,0.00
2013-8-24,79.0,64.9,49.0,58.0,52.7,42.5,90,66,46,29.97,29.88,11,1,11,0.00
2013-8-25,71.1,62.6,56.9,63.8,56.4,47.4,92,81,63,30.00,29.93,9,0,9,0.20
2013-8-26,83.9,68.0,56.0,62.8,55.2,47.6,94,69,30,30.00,29.94,16,2,16,0.00
2013-8-27,58.4,54.7,52.1,51.6,49.7,48.2,87,83,78,30.00,29.99,0,0,0,0.00
2013-8-28,87.2,71.6,54.6,61.3,58.2,49.9,91,65,38,29.93,29.85,6,1,13,0.00
2013-8-29,85.4,72.4,61.5,66.3,59.2,55.3,88,65,40,30.12,29.91,11,3,22,0.05
2013-8-30,87.5,76.5,62.7,63.0,59.3,52.0,81,57,36,30.17,30.03,8,2,14,0.00
2013-8-31,92.4,72.5,49.8,63.0,56.7,46.0,93,60,38,30.06,29.86,12,2,14,0.00
2013-9-1,89.8,69.1,49.9,58.5,52.7,44.3,92,60,30,29.98,29.81,17,1,17,0.00
2013-9-2,84.1,69.1,56.0,60.3,53.2,45.3,87,59,33,29.98,29.90,17,2,17,0.00
2013-9-3,84.5,71.0,59.9,57.0,55.0,50.7,82,59,33,30.07,29.97,14,2,15,0.00
2013-9-4,80.3,69.1,59.5,58.6,55.6,49.9,82,63,44,30.09,30.02,8,2,13,0.00
2013-9-5,68.2,65.0,60.0,58.4,55.6,53.9,86,72,64,30.19,30.04,11,1,11,0.01
2013-9-6,81.1,67.5,58.1,59.9,55.9,49.2,93,69,39,30.25,30.11,10,0,10,0.01
2013-9-7,85.9,65.0,47.9,60.2,51.8,42.6,90,66,34,30.12,29.95,0,0,0,0.00
2013-9-8,89.0,68.2,46.8,61.7,51.9,39.7,92,59,33,30.09,29.97,17,1,17,0.00
2013-9-9,92.6,72.5,50.8,63.2,53.4,44.8,91,55,24,30.06,29.88,17,2,17,0.00
2013-9-10,99.1,75.5,54.6,64.1,56.3,46.8,87,55,24,29.93,29.74,11,1,11,0.00
2013-9-11,96.3,73.0,53.6,64.1,56.1,45.8,92,59,32,30.02,29.82,14,2,14,0.00
2013-9-12,91.5,69.3,53.1,62.2,56.1,45.9,89,66,36,30.05,29.92,12,2,12,0.00
2013-9-13,90.4,68.9,50.1,62.7,55.7,43.5,93,66,38,30.02,29.82,14,2,14,0.00
2013-9-14,88.8,68.7,54.3,64.0,58.6,47.0,90,72,42,29.87,29.71,14,2,14,0.00
2013-9-15,71.4,65.1,61.7,57.2,55.4,52.8,81,71,57,29.99,29.81,8,2,10,0.00
2013-9-16,76.7,66.6,59.4,56.7,53.2,49.3,81,64,43,30.04,29.93,14,2,14,0.00
2013-9-17,70.0,61.8,48.9,57.8,53.2,45.3,88,74,54,30.12,29.90,19,2,19,0.10
2013-9-18,76.7,58.0,43.4,55.5,47.4,39.7,95,72,39,30.18,30.02,10,1,10,0.00
2013-9-19,85.7,60.3,38.8,53.4,45.5,35.5,94,64,28,30.05,29.83,10,1,11,0.00
2013-9-20,72.7,56.3,42.2,59.5,50.1,37.1,93,81,51,29.86,29.75,11,1,12,0.40
2013-9-21,67.2,59.8,53.1,58.6,56.2,50.5,94,88,65,29.92,29.74,8,0,9,0.70
2013-9-22,67.6,58.3,50.7,57.7,54.2,48.3,95,87,66,29.99,29.84,20,2,20,0.06
2013-9-23,67.2,59.8,56.5,58.4,56.0,54.6,95,88,68,30.09,29.99,9,0,9,0.01
2013-9-24,64.4,57.6,51.6,55.3,52.4,48.4,94,83,59,30.06,29.97,14,2,14,0.17
2013-9-25,60.4,52.9,47.2,52.3,48.7,45.2,95,86,68,30.14,29.98,13,1,13,0.18
2013-9-26,68.4,55.2,46.7,53.3,48.4,43.2,95,80,47,30.26,30.13,11,1,11,0.00
2013-9-27,65.8,53.3,42.0,55.4,48.6,39.7,95,85,59,30.29,30.11,8,0,8,0.06
2013-9-28,71.5,61.2,55.0,59.1,55.4,50.9,94,83,57,30.11,29.72,28,4,28,0.22
2013-9-29,60.2,56.7,54.5,57.6,53.1,50.9,95,88,78,29.87,29.67,21,3,23,0.66
2013-9-30,63.2,55.8,46.4,54.4,49.5,44.5,95,80,60,30.14,29.81,17,3,17,0.40
2013-10-1,64.6,53.5,42.0,53.0,48.2,39.5,95,83,56,30.27,30.11,19,1,19,0.08
2013-10-2,59.4,49.0,41.4,51.3,45.8,39.3,96,89,67,30.28,30.18,11,1,12,0.03
2013-10-3,63.0,50.3,42.1,51.3,45.4,39.3,95,85,55,30.46,30.28,10,1,10,0.01
2013-10-4,67.7,49.5,37.9,53.9,44.2,35.8,95,84,53,30.50,30.36,6,0,6,0.02
2013-10-5,75.5,52.3,39.1,55.6,45.1,36.8,96,80,34,30.39,30.19,5,0,5,0.01
2013-10-6,81.6,55.5,42.8,57.3,44.8,35.7,96,75,21,30.22,30.04,15,1,15,0.01
2013-10-7,67.2,54.6,44.7,53.4,47.7,42.0,94,79,48,30.24,30.09,9,2,17,0.00
2013-10-8,57.9,52.8,42.9,51.0,48.5,41.0,94,85,71,30.25,30.07,2,0,4,0.01
2013-10-9,60.7,52.5,41.5,48.0,44.6,39.0,95,76,58,30.11,30.03,10,3,12,0.01
2013-10-10,66.5,55.6,38.9,50.0,44.9,37.0,96,70,48,30.16,30.04,6,1,8,0.01
2013-10-11,59.3,54.0,47.9,50.0,47.3,45.0,92,78,68,30.21,30.15,5,1,7,0.01
2013-10-12,62.0,54.7,42.0,49.0,46.6,39.0,95,76,55,30.19,30.12,7,2,7,0.00
2013-10-13,63.6,53.4,38.6,49.0,44.8,37.0,95,74,54,30.32,30.21,9,2,11,0.01
2013-10-14,63.8,48.8,36.5,50.0,42.4,34.0,95,80,58,30.40,30.29,5,1,6,0.01
2013-10-15,65.2,51.1,38.3,50.0,44.0,36.0,95,79,55,30.34,30.18,3,0,8,0.00
2013-10-16,70.6,54.4,38.2,52.0,44.8,36.0,96,74,46,30.23,30.14,3,0,5,0.00
2013-10-17,69.8,56.3,40.4,53.0,47.5,38.0,95,75,53,30.27,30.15,5,1,7,0.00
2013-10-18,69.0,56.6,40.1,54.0,48.7,38.0,96,77,55,30.23,30.11,4,1,6,0.01
2013-10-19,71.8,56.7,40.0,57.0,49.5,38.0,96,79,56,30.22,30.12,4,1,5,0.00
2013-10-20,68.6,57.5,43.5,57.0,51.2,42.0,96,81,64,30.21,30.09,5,1,5,0.01
2013-10-21,70.0,57.7,43.3,56.0,51.1,42.0,96,80,57,30.14,30.00,4,1,5,0.00
2013-10-22,73.1,59.6,43.8,58.0,52.0,43.0,96,78,53,30.12,30.00,5,1,6,0.00
2013-10-23,72.6,58.6,42.8,58.0,51.7,41.0,96,80,56,30.08,29.98,4,1,6,0.00
2013-10-24,69.2,58.3,44.1,56.0,52.1,43.0,96,81,62,30.14,30.04,4,1,4,0.00
2013-10-25,55.4,52.2,49.1,52.0,50.3,48.0,96,93,88,30.29,30.18,3,1,5,0.00
2013-10-26,55.1,52.3,50.5,51.0,49.7,48.0,95,91,84,30.32,30.22,4,1,7,0.00
2013-10-27,55.3,50.6,48.1,51.0,47.7,46.0,95,90,81,30.23,29.89,7,1,11,0.00
2013-10-28,59.6,50.7,35.7,48.0,43.3,34.0,94,77,52,29.93,29.81,6,2,10,0.00
2013-10-29,59.4,43.5,31.7,44.0,37.0,30.0,96,81,53,30.15,29.95,3,0,5,0.04
2013-10-30,62.2,46.8,33.3,49.0,41.5,32.0,96,84,58,30.28,30.16,3,0,6,0.01
2013-10-31,65.8,58.1,43.4,54.0,49.9,42.0,94,75,58,30.32,30.25,5,1,6,0.00
2013-11-1,65.0,57.9,46.3,54.0,52.0,45.0,94,81,66,30.30,30.05,4,1,7,0.00
2013-11-2,57.1,53.0,40.3,51.0,47.2,39.0,95,82,66,30.24,29.95,6,3,15,0.03
2013-11-3,52.4,42.4,36.1,46.0,39.9,35.0,96,91,70,30.30,30.25,3,0,5,0.02
2013-11-4,53.2,46.0,41.5,47.0,43.5,40.0,96,91,73,30.30,30.24,4,0,7,0.00
2013-11-5,54.6,52.3,48.2,52.0,50.7,47.0,96,94,91,30.34,30.23,2,0,4,0.00
2013-11-6,62.7,57.8,52.7,57.0,54.8,52.0,96,90,80,30.35,30.20,4,0,5,0.01
2013-11-7,57.6,51.7,45.0,56.0,50.0,44.0,97,94,85,30.26,30.09,4,1,10,0.00
2013-11-8,52.8,46.3,43.5,47.0,44.0,42.0,96,92,81,30.31,30.18,2,0,5,0.00
2013-11-9,60.6,52.3,43.7,50.0,45.9,42.0,96,80,63,30.17,30.07,3,0,5,0.01
2013-11-10,61.8,51.7,42.5,53.0,47.8,41.0,96,87,68,30.15,30.07,2,0,3,0.36
2013-11-11,52.9,48.5,45.6,50.0,47.2,45.0,97,95,89,30.18,30.08,3,0,3,0.01
2013-11-12,58.2,53.6,47.8,56.0,51.8,47.0,96,93,88,30.47,30.17,3,0,5,0.08
2013-11-13,58.5,53.7,50.8,52.0,50.5,48.0,96,89,80,30.51,30.32,5,1,9,0.00
2013-11-14,53.1,49.5,46.1,47.0,45.5,45.0,95,86,75,30.32,30.18,2,1,6,0.01
2013-11-15,50.6,47.0,43.2,45.0,43.8,41.0,96,89,71,30.17,29.85,8,1,11,0.01
2013-11-16,53.6,48.6,43.3,47.0,44.5,42.0,95,86,72,30.00,29.78,7,2,12,0.04
2013-11-17,57.0,44.6,35.2,46.0,41.1,34.0,95,88,66,30.15,30.03,5,1,7,0.00
2013-11-18,48.0,41.5,35.9,47.0,40.3,35.0,96,95,90,30.12,29.91,2,0,4,0.18
2013-11-19,55.4,51.9,46.9,54.0,50.7,45.0,97,96,92,29.99,29.87,4,1,12,0.76
2013-11-20,45.8,38.9,31.2,44.0,34.5,29.0,92,84,78,30.35,30.01,13,4,15,0.01
2013-11-21,43.8,31.3,25.2,35.0,28.6,24.0,95,90,67,30.61,30.35,3,0,5,0.00
2013-11-22,35.6,31.0,26.9,32.0,29.5,25.0,96,94,88,30.61,30.44,3,1,6,0.00
2013-11-23,35.1,32.4,30.2,33.0,31.2,29.0,96,95,91,30.44,30.24,3,1,5,0.00
2013-11-24,41.7,32.9,30.5,39.0,31.9,29.0,96,96,90,30.37,30.25,3,0,5,0.00
2013-11-25,45.1,34.9,32.4,43.0,33.8,31.0,96,95,86,30.44,30.36,3,0,4,0.01
2013-11-26,47.9,36.3,34.2,44.0,35.3,33.0,97,95,81,30.37,30.14,3,0,4,0.00
2013-11-27,44.2,36.3,34.6,42.0,35.4,34.0,97,96,93,30.14,30.00,2,0,3,0.01
2013-11-28,41.5,38.1,36.3,41.0,37.4,36.0,97,97,97,30.29,30.08,2,0,3,0.01
2013-11-29,41.7,38.5,36.0,41.0,37.8,35.0,97,97,97,30.45,30.29,3,0,3,0.02
2013-11-30,44.5,41.7,39.5,43.3,40.8,38.7,97,97,95,30.50,30.42,2,-3,5,0.00
2013-12-1,56.6,49.2,42.2,52.1,46.8,41.4,97,92,81,30.45,30.21,17,-2,17,0.00
2013-12-2,55.7,46.4,34.6,51.2,43.4,32.9,96,90,80,30.21,30.05,17,3,17,0.31
2013-12-3,42.7,36.5,28.8,39.4,34.3,26.5,96,92,83,30.27,30.15,10,1,10,0.01
2013-12-4,38.2,29.1,19.2,29.5,24.5,17.0,93,83,63,30.37,30.27,7,1,7,0.00
2013-12-5,33.4,25.8,18.7,29.4,23.6,16.5,94,92,83,30.37,30.23,5,0,5,0.00
2013-12-6,35.3,30.9,28.0,33.9,29.3,25.1,96,94,89,30.23,29.92,8,1,8,0.16
2013-12-7,27.9,24.3,11.0,25.1,20.6,7.9,93,86,77,30.48,30.07,7,1,7,0.01
2013-12-8,25.4,15.4,6.6,20.9,12.7,3.8,92,89,81,30.70,30.47,4,0,4,0.01
2013-12-9,31.1,19.0,7.5,25.6,16.3,4.5,92,89,78,30.72,30.63,5,0,5,0.00
2013-12-10,31.6,22.8,11.4,29.2,21.0,8.8,95,93,89,30.65,30.49,4,0,4,0.01
2013-12-11,31.7,27.5,22.8,30.7,26.2,21.0,96,95,93,30.50,30.32,3,0,3,0.00
2013-12-12,34.1,30.7,27.1,33.0,29.6,25.8,96,96,95,30.37,30.25,4,0,4,0.02
2013-12-13,49.0,37.4,33.3,44.8,35.9,32.1,97,94,85,30.53,30.36,4,0,4,0.01
2013-12-14,40.9,37.7,35.6,40.1,36.8,34.6,97,97,96,30.56,30.50,7,1,7,0.01
2013-12-15,43.1,37.8,35.3,41.3,36.8,34.5,97,96,92,30.59,30.50,6,1,6,0.00
2013-12-16,37.1,36.0,34.7,36.0,35.0,33.7,97,96,95,30.54,30.35,7,1,7,0.01
2013-12-17,37.7,35.4,34.0,36.7,34.4,33.0,97,96,96,30.35,30.25,6,0,6,0.00
2013-12-18,40.6,36.9,33.1,39.5,35.9,32.0,97,96,93,30.28,30.12,17,0,17,0.08
2013-12-19,40.4,34.7,29.8,39.0,32.4,28.6,96,91,82,30.36,30.19,15,2,17,0.00
2013-12-20,43.4,36.7,31.6,39.9,34.4,30.0,96,91,83,30.33,30.10,7,0,7,0.02
2013-12-21,51.9,45.0,40.0,49.4,43.7,38.9,97,95,90,30.35,30.14,2,0,5,0.00
2013-12-22,58.3,46.5,38.8,50.9,44.2,37.6,97,92,74,30.46,30.36,2,0,5,0.00
2013-12-23,47.6,44.1,40.4,46.5,43.2,39.6,97,97,95,30.58,30.45,1,0,3,0.00
2013-12-24,46.5,43.4,38.0,45.7,41.7,-99.9,97,95,90,30.62,30.52,7,1,7,0.00
2013-12-25,47.6,42.0,35.5,44.0,40.0,33.7,96,93,84,30.53,30.43,7,1,7,0.00
2013-12-26,44.7,39.0,33.1,41.8,37.7,31.8,97,95,89,30.45,30.31,6,1,6,0.00
2013-12-27,43.9,34.3,31.6,41.2,28.4,-99.9,97,91,89,30.45,30.28,4,-48,4,0.01
2013-12-28,39.8,38.1,36.3,38.8,36.8,35.4,97,95,92,30.57,30.45,7,1,7,0.01
2013-12-29,39.3,37.6,36.4,36.4,35.4,34.0,94,91,88,30.53,30.35,5,1,5,0.00
2013-12-30,43.8,37.4,31.8,40.4,35.5,30.0,96,93,86,30.36,30.30,4,0,4,0.00
2013-12-31,53.8,38.0,30.5,44.2,35.3,29.1,97,91,63,30.43,30.34,3,0,6,0.00
2014-1-1,38.6,35.6,33.0,37.8,34.7,32.0,97,97,96,30.44,30.35,5,0,5,0.00
2014-1-2,43.2,37.2,33.4,42.4,36.3,32.6,97,96,94,30.36,30.21,3,0,4,0.01